Tracking 31011 objects as of 13-Jul-2025
HD Live streaming from Space Station
objects crossing your sky now

STARLINK-4453

Track STARLINK-4453 now!
10-day predictions
STARLINK-4453 is classified as:


NORAD ID: 53497
Int'l Code: 2022-099AJ
Perigee: 568.2 km
Apogee: 572.1 km
Inclination: 97.7 °
Period: 95.9 minutes
Semi major axis: 6941 km
RCS: Unknown
Launch date: August 12, 2022
Source: United States (US)
Launch site: AIR FORCE WESTERN TEST RANGE (AFWTR)
Your satellite tracking list
Your tracking list is empty




NASA's NSSDC Master Catalog

Two Line Element Set (TLE):
1 53497U 22099AJ  25193.59584379  .00000110  00000-0  13184-4 0  9993
2 53497  97.6551 314.8513 0002749  75.8607 284.2922 15.01261333159967
Source of the keplerian elements: AFSPC